Flag Weather past 2 weeks in Egersund, Norway

Now
46 °F

Cool.


Feels Like: 46 °F
Forecast: 41 / 47 °F
Wind: 2 mph from Southeast

Location: Ualand-Bjuland

Current Time: Nov 24, 2014 at 2:24:57 AM

Latest Report: Nov 24, 2014 at 1:00 AM


Visibility: N/A

Pressure: 29.76 "Hg

Humidity: 85%

Dew point: 42 °F

Location of EgersundLocation

Historic Weather in Egersund — Graph

°F

Egersund temperature yesterday

Maximum temperature yesterday: 46 °F (at 8:00 PM)
Minimum temperature yesterday: 42 °F (at 3:00 AM)
Average temperature yesterday: 44 °F

Past Weeks' High & Low Weather Summary

 TemperatureHumidityPressure
High47 °F (Nov 18, 3:00 PM)97% (Nov 22, 2:00 AM)30.49 "Hg (Nov 22, 2:00 AM)
Low26 °F (Nov 22, 1:00 AM)57% (Nov 19, 10:00 AM)29.75 "Hg (Nov 24, 12:00 AM)
Average40 °F78%30.25 "Hg
* Reported Nov 17 11:00 AM — Midnight between Nov 23 and Nov 24, Egersund, Weather by CustomWeather, © 2014

Note: Actual official high and low records may vary slightly from our data, if they occured in-between our weather recording intervals... More about our weather records

Advertising

Egersund weather history for previous 24 hours

 ConditionsComfort  
Time TempWeatherWind HumidityBarometerVisibility
12:00 AM
Nov 24
45 °FQuite cool.1 mph94%29.75 "HgN/A
11:00 PM
Nov 23
45 °FCool.1 mph94%29.77 "HgN/A
9:00 PM45 °FQuite cool.1 mph96%29.76 "HgN/A
8:00 PM46 °FCool.3 mph91%29.76 "HgN/A
7:00 PM46 °FRain. Low clouds.5 mph90%29.80 "Hg9 mi
6:00 PM44 °FQuite cool.2 mph96%29.83 "HgN/A
5:00 PM44 °FQuite cool.1 mph93%29.86 "HgN/A
4:00 PM46 °FCool.6 mph87%29.90 "HgN/A
3:00 PM46 °FCool.6 mph87%29.92 "HgN/A
2:00 PM46 °FCool.6 mph85%29.96 "HgN/A
1:00 PM46 °FLight rain. Low clouds.5 mph86%29.99 "Hg19 mi
12:00 PM43 °FQuite cool.1 mph94%30.04 "HgN/A
11:00 AM43 °FQuite cool.1 mph96%30.06 "HgN/A
10:00 AM43 °FQuite cool.1 mph94%30.08 "HgN/A
9:00 AM44 °FQuite cool.2 mph88%30.10 "HgN/A
8:00 AM44 °FQuite cool.2 mph88%30.09 "HgN/A
7:00 AM43 °FLight rain. Low clouds.1 mph90%30.11 "Hg9 mi
6:00 AM43 °FQuite cool.1 mph90%30.10 "HgN/A
5:00 AM43 °FQuite cool.1 mph88%30.10 "HgN/A
4:00 AM43 °FQuite cool.2 mph86%30.10 "HgN/A
3:00 AM42 °FQuite cool.2 mph89%30.11 "HgN/A
2:00 AM43 °FQuite cool.2 mph83%30.12 "HgN/A
Weather by CustomWeather, © 2014

See weather overviewHow to use our weather pages